DW8084 Weather Reports


time (UTC)temp
F
wind
direction
speed
knots
gust
knots
rain 1hr
in
rain 24hr
in
rain mn
in
humidity
%
barometer
mb
20260506182206 56 11 2.6 7.0 0.00 0.00 0.00 52
20260506181205 56 16 2.6 6.1 0.00 0.00 0.00 51
20260506180204 56 31 0.9 3.5 0.00 0.00 0.00 52
20260506175418 56 40 0.9 4.3 0.00 0.00 0.00 50
20260506174419 57 35 1.7 4.3 0.00 0.00 0.00 50
20260506173205 57 35 1.7 6.1 0.00 0.00 0.00 50
20260506172416 58 33 1.7 4.3 0.00 0.00 0.00 50
20260506171206 58 31 2.6 5.2 0.00 0.00 0.00 49
20260506170417 58 42 2.6 5.2 0.00 0.00 0.00 49
20260506165205 58 14 0.9 5.2 0.00 0.00 0.00 49
20260506164205 58 323 0.9 1.7 0.00 0.00 0.00 49
20260506163205 58 341 1.7 4.3 0.00 0.00 0.00 49
20260506162205 59 357 2.6 5.2 0.00 0.00 0.00 47
20260506161205 59 348 1.7 5.2 0.00 0.00 0.00 49
20260506160206 59 12 1.7 5.2 0.00 0.00 0.00 48
20260506155205 58 37 1.7 6.1 0.00 0.00 0.00 48
20260506154206 59 20 0.9 4.3 0.00 0.00 0.00 49
20260506153416 59 353 1.7 6.1 0.00 0.00 0.00 52
20260506152205 59 356 3.5 9.6 0.00 0.00 0.00 50
20260506151418 59 348 1.7 4.3 0.00 0.00 0.00 50
20260506150205 58 338 2.6 7.0 0.00 0.00 0.00 54
20260506145208 57 22 2.6 7.8 0.00 0.00 0.00 53
20260506144205 57 40 1.7 3.5 0.00 0.00 0.00 56
20260506143205 58 21 2.6 7.8 0.00 0.00 0.00 54
20260506142205 57 6 2.6 6.1 0.00 0.00 0.00 55
20260506141205 57 358 2.6 8.7 0.00 0.00 0.00 53
20260506140205 58 30 2.6 6.1 0.00 0.00 0.00 54
20260506135205 57 48 2.6 5.2 0.00 0.00 0.00 55
20260506134205 57 45 1.7 5.2 0.00 0.00 0.00 52
20260506133205 58 36 3.5 7.8 0.00 0.00 0.00 51
20260506132205 58 13 0.9 2.6 0.00 0.00 0.00 55
20260506131204 57 8 2.6 7.0 0.00 0.00 0.00 53
20260506130204 57 29 3.5 8.7 0.00 0.00 0.00 53
20260506125205 57 47 1.7 7.8 0.00 0.00 0.00 53
20260506124205 56 33 3.5 7.8 0.00 0.00 0.00 55
20260506123205 56 21 3.5 8.7 0.00 0.00 0.00 54
20260506122204 56 12 2.6 5.2 0.00 0.00 0.00 56
20260506121205 55 3 3.5 8.7 0.00 0.00 0.00 57
20260506120204 55 16 3.5 8.7 0.00 0.00 0.00 58
20260506115205 55 14 3.5 7.8 0.00 0.00 0.00 59
20260506114204 54 3 3.5 11.3 0.00 0.00 0.00 60
20260506113418 55 22 3.5 10.4 0.00 0.00 0.00 58
20260506112204 54 27 3.5 8.7 0.00 0.00 0.00 60
20260506111415 53 16 2.6 9.6 0.00 0.00 0.00 63
20260506110205 53 14 3.5 7.0 0.00 0.00 0.00 62
20260506105204 53 23 2.6 10.4 0.00 0.00 0.00 64
20260506104204 54 47 2.6 5.2 0.00 0.00 0.00 63
20260506103205 53 34 2.6 7.0 0.00 0.00 0.00 66
20260506102205 53 17 1.7 8.7 0.00 0.00 0.00 66
20260506101204 53 18 1.7 4.3 0.00 0.00 0.00 67
20260506100205 52 13 1.7 6.1 0.00 0.00 0.00 67
20260506095205 52 13 1.7 5.2 0.00 0.00 0.00 68
20260506094205 52 24 2.6 6.1 0.00 0.00 0.00 67
20260506093204 51 32 3.5 7.8 0.00 0.00 0.00 68
20260506092416 52 21 2.6 6.1 0.00 0.00 0.00 67
20260506091205 51 30 3.5 7.8 0.00 0.00 0.00 67
20260506090204 52 45 2.6 7.0 0.00 0.00 0.00 66
20260506085205 51 60 3.5 7.0 0.00 0.00 0.00 67
20260506084205 50 63 3.5 9.6 0.00 0.00 0.00 67
20260506083204 50 55 3.5 7.0 0.00 0.00 0.00 68
20260506082207 50 43 2.6 7.0 0.00 0.00 0.00 70
20260506081205 49 32 2.6 5.2 0.00 0.00 0.00 71
20260506080204 48 41 2.6 5.2 0.00 0.00 0.00 73
20260506073204 47 56 1.7 3.5 0.00 0.00 0.00 76
20260506072204 47 63 1.7 5.2 0.00 0.00 0.00 76
20260506071205 47 59 2.6 6.1 0.00 0.00 0.00 76
20260506070204 46 51 2.6 7.0 0.00 0.00 0.00 76
20260506062204 46 56 2.6 6.1 0.00 0.00 0.00 77
20260506061204 46 54 2.6 10.4 0.00 0.00 0.00 77
20260506060204 46 52 2.6 7.8 0.00 0.00 0.00 78
20260506051204 46 34 1.7 7.0 0.00 0.00 0.00 83
20260506050204 47 31 1.7 6.1 0.00 0.00 0.00 83
20260506044204 47 35 1.7 5.2 0.00 0.00 0.00 81
20260506043418 47 39 1.7 7.0 0.00 0.00 0.00 80
20260506042204 47 52 0.9 3.5 0.00 0.00 0.00 80
20260506041415 47 46 1.7 5.2 0.00 0.00 0.00 79
20260506040416 47 49 1.7 4.3 0.00 0.00 0.00 79
20260506035205 47 52 1.7 3.5 0.00 0.00 0.00 79
20260506034204 48 55 2.6 6.1 0.00 0.00 0.00 79
20260506033204 48 60 0.9 2.6 0.00 0.00 0.00 79
20260506032414 48 58 1.7 6.1 0.00 0.00 0.00 79
20260506031204 48 63 2.6 5.2 0.00 0.00 0.00 80
20260506030204 48 65 1.7 5.2 0.00 0.00 0.00 79
20260506025417 48 68 2.6 6.1 0.00 0.00 0.00 79
20260506024204 49 70 2.6 5.2 0.00 0.00 0.00 81
20260506023204 49 70 2.6 7.8 0.00 0.00 0.00 81
20260506022203 49 69 2.6 7.0 0.00 0.00 0.00 82
20260506021203 50 58 1.7 3.5 0.00 0.00 0.00 83
20260506020205 50 56 0.9 3.5 0.00 0.00 0.00 83
20260506015203 50 62 0.9 4.3 0.00 0.00 0.00 83
20260506014204 50 62 1.7 5.2 0.00 0.00 0.00 83
20260506013415 50 65 0.9 1.7 0.00 0.00 0.00 83
20260506012203 50 67 1.7 6.1 0.00 0.00 0.00 83
20260506011417 50 65 3.5 7.0 0.00 0.00 0.00 83
20260506010203 50 42 0.9 2.6 0.00 0.00 0.00 84
20260506005204 50 33 0.9 3.5 0.00 0.00 0.00 84
20260506004203 50 27 1.7 5.2 0.00 0.00 0.00 83
20260506003415 49 22 0.9 4.3 0.00 0.00 0.00 83
20260506002416 49 25 1.7 5.2 0.00 0.00 0.00 83
20260506001417 49 19 1.7 4.3 0.00 0.00 0.00 82
20260506000204 50 19 1.7 4.3 0.00 0.00 0.00 82
20260505235203 50 23 0.9 4.3 0.00 0.00 0.00 81
20260505234204 50 16 1.7 6.1 0.00 0.00 0.00 80
20260505233204 50 18 1.7 7.8 0.00 0.00 0.00 80
20260505232205 50 23 3.5 7.0 0.00 0.00 0.00 79
20260505231204 50 15 2.6 7.8 0.00 0.00 0.00 79
20260505230205 50 3 1.7 7.8 0.00 0.00 0.00 78
20260505225204 51 359 1.7 7.0 0.00 0.00 0.00 78
20260505224204 51 3 1.7 4.3 0.00 0.00 0.00 78
20260505223204 51 7 1.7 4.3 0.00 0.00 0.00 77
20260505222203 51 352 1.7 6.1 0.00 0.00 0.00 77
20260505221413 51 352 1.7 7.8 0.00 0.00 0.00 77
20260505220204 51 348 1.7 4.3 0.00 0.00 0.00 77
20260505215204 51 339 1.7 3.5 0.00 0.00 0.00 77
20260505214203 51 335 0.9 2.6 0.00 0.00 0.00 77
20260505213204 51 332 0.9 2.6 0.00 0.00 0.00 77
20260505212203 51 334 1.7 3.5 0.00 0.00 0.00 77
20260505211203 51 337 1.7 3.5 0.00 0.00 0.00 76
20260505210203 51 348 0.9 3.5 0.00 0.00 0.00 76
20260505205204 51 347 0.9 4.3 0.00 0.00 0.00 76
20260505204203 52 345 1.7 4.3 0.00 0.00 0.00 76
20260505203418 52 344 0.9 3.5 0.00 0.00 0.00 76
20260505202204 52 342 1.7 6.1 0.00 0.00 0.00 75
20260505201415 52 346 0.9 3.5 0.00 0.00 0.00 75
20260505200204 52 345 0.9 2.6 0.00 0.00 0.00 73
20260505195205 52 337 0.9 3.5 0.00 0.00 0.00 73
20260505194203 53 332 0.9 4.3 0.00 0.00 0.00 72
20260505193204 53 329 1.7 5.2 0.00 0.00 0.00 71
20260505192205 54 343 1.7 5.2 0.00 0.00 0.00 70
20260505191203 54 355 1.7 4.3 0.00 0.00 0.00 68
20260505190204 54 354 2.6 7.0 0.00 0.00 0.00 67
20260505185203 55 355 2.6 7.0 0.00 0.00 0.00 66
20260505184203 55 3 3.5 8.7 0.00 0.00 0.00 65
20260505183205 55 14 1.7 5.2 0.00 0.00 0.00 63